Regional Weather Roundup
Issued by NWS

Home | Current Version | Previous Version | Text Only | Print | Product List | Glossary On
Versions: 1 2 3 4 5 6 7 8 9 10 11 12 13 14 15 16 17 18 19 20 21 22 23 24 25 26 27 28 29 30 31 32 33 34 35 36 37 38 39 40 41 42 43 44 45 46 47 48 49 50
000
ASUS43 KFSD 240510
RWRSD

WEATHER ROUNDUP FOR SOUTH DAKOTA
NATIONAL WEATHER SERVICE SIOUX FALLS SD
1200 AM CDT SUN MAY 24 2015

NOTE: "FAIR" INDICATES FEW OR NO CLOUDS BELOW 12,000 FEET WITH NO
SIGNIFICANT WEATHER AND/OR OBSTRUCTIONS TO VISIBILITY.


SDZ001>005-009-010-012>017-240600-
NORTHWEST AND NORTH CENTRAL SOUTH DAKOTA

CITY           SKY/WX    TMP DP  RH WIND       PRES   REMARKS
BUFFALO          N/A     54  48  80 E9        30.01S
FAITH            N/A     53  51  93 NE10      30.06F
MOBRIDGE       CLOUDY    58  53  84 NE5       30.06F
$$

SDZ012>016-024>037-041>051-057-063-072>074-240600-
SOUTHWEST AND SOUTH CENTRAL SOUTH DAKOTA

CITY           SKY/WX    TMP DP  RH WIND       PRES   REMARKS
RAPID CTY ARPT CLOUDY    54  52  93 E12       30.03S
PIERRE         CLOUDY    55  53  93 E7        30.02F
CUSTER         RAIN      48  46  93 E10       30.05S FOG
ELLSWORTH AFB  CLOUDY    54  54 100 E9        30.03S
PHILIP         CLOUDY    56  55  97 E8        30.03R
PINE RIDGE     CLOUDY    53  51  93 E10       29.99F
SPEARFISH      CLOUDY    50  50 100 E10G20    30.06R FOG
WINNER         LGT RAIN  56  54  93 E8        30.04S
$$

SDZ004>011-016>023-039-040-240600-
NORTHEAST SOUTH DAKOTA

CITY           SKY/WX    TMP DP  RH WIND       PRES   REMARKS
ABERDEEN       MOCLDY    56  49  77 E5        30.08F
WATERTOWN      MOCLDY    58  47  66 E8        30.08F
BROOKINGS      CLOUDY    61  52  72 SE6       30.08S
SISSETON         N/A     59  49  69 SE6       30.08F
$$

SDZ017-020-022-023-036>040-048>070-240600-
SOUTHEAST SOUTH DAKOTA

CITY           SKY/WX    TMP DP  RH WIND       PRES   REMARKS
SIOUX FALLS    CLOUDY    61  55  81 S3        30.07S
HURON          MOCLDY    56  53  90 N5        30.05F
CHAMBERLAIN    CLOUDY    56  55  97 SE6       30.05R
MITCHELL       CLOUDY    58  55  90 E6        30.05F
YANKTON        CLOUDY    57  54  88 E6        30.04F
$$

ABBREVIATIONS USED IN REMARKS
   TC - TEMPERATURE IN CELSIUS
  WCI - WIND CHILL INDEX
   HX - HEAT INDEX
  VSB - VISIBILITY



USA.gov is the U.S. government's official web portal to all federal, state and local government web resources and services.